Jacksonville, FL

3:49 AM EST on February 24, 2017 (GMT -0500)
Craig Municipal

Weather History for KCRG - September, 2012

Change the Weather History Date:

Sunday, September 30, 2012

  Actual Average Record
Temperature  
Mean Temperature 80 °F -  
Max Temperature 89 °F 81 °F 91 °F (2016)
Min Temperature 73 °F 67 °F 60 °F (2001)
Cooling Degree Days 16    
Growing Degree Days 30 (Base 50)    
Moisture  
Dew Point 72 °F    
Average Humidity 80    
Maximum Humidity 94    
Minimum Humidity 51    
Precipitation  
Precipitation 0.11 in - - ()
Sea Level Pressure  
Sea Level Pressure 29.84 in    
Wind  
Wind Speed 3 mph (SSE)    
Max Wind Speed 14 mph    
Max Gust Speed -    
Visibility 9 miles    
Events Rain , Thunderstorm    
Averages and records for this station are not official NWS values.
T = Trace of Precipitation, MM = Missing Value Source: NWS Daily Summary

Daily Weather History Graph

Daily Weather History Graph

Search for Another Location

Airport or City:

Trip Planner

Search our weather history database for the weather conditions in past years. The results will help you decide how hot, cold, wet, or windy it might be!

Date:

Astronomy

Sep. 30, 2012 Rise Set
Actual Time 7:19 AM EDT 7:12 PM EDT
Civil Twilight 6:55 AM EDT 7:35 PM EDT
Nautical Twilight 6:27 AM EDT 8:03 PM EDT
Astronomical Twilight 5:59 AM EDT 8:31 PM EDT
Moon 7:22 PM EDT (9/30) 7:42 AM EDT (9/30)
Length of Visible Light 12h 40m
Length of Day
11h 52m
Full, 100% of the Moon is Illuminated
Sep 30
Full
Oct 8
Last Quarter
Oct 15
New
Oct 21
First Quarter
Oct 29
Full

Hourly Weather History & Observations

Time (EDT) Temp. Heat Index Dew Point Humidity Pressure Visibility Wind Dir Wind Speed Gust Speed Precip Events Conditions
12:53 AM 73.9 °F - 70.0 °F 87% 29.91 in 10.0 mi Calm Calm - N/A   Clear
1:53 AM 75.0 °F - 71.1 °F 87% 29.90 in 10.0 mi South 3.5 mph - N/A   Clear
2:53 AM 75.9 °F - 71.1 °F 85% 29.89 in 10.0 mi NNW 5.8 mph - N/A   Clear
3:53 AM 73.0 °F - 71.1 °F 93% 29.87 in 10.0 mi Calm Calm - N/A   Clear
4:44 AM 73.4 °F - 71.6 °F 94% 29.87 in 10.0 mi Calm Calm - N/A   Partly Cloudy
4:53 AM 73.0 °F - 71.1 °F 93% 29.86 in 10.0 mi Calm Calm - N/A   Clear
6:53 AM 73.0 °F - 70.0 °F 90% 29.87 in 10.0 mi Calm Calm - N/A   Clear
7:53 AM 73.0 °F - 71.1 °F 93% 29.87 in 10.0 mi Calm Calm - N/A   Clear
8:53 AM 77.0 °F - 73.0 °F 88% 29.88 in 10.0 mi Calm Calm - N/A   Clear
10:53 AM 84.9 °F 90.1 °F 71.1 °F 63% 29.88 in 10.0 mi Variable 4.6 mph - N/A   Clear
11:53 AM 87.1 °F 91.3 °F 69.1 °F 55% 29.87 in 10.0 mi SSE 9.2 mph - N/A   Clear
12:53 PM 88.0 °F 91.4 °F 68.0 °F 51% 29.86 in 10.0 mi South 8.1 mph - N/A   Mostly Cloudy
1:53 PM 86.0 °F 92.2 °F 72.0 °F 63% 29.83 in 10.0 mi SE 6.9 mph - N/A   Clear
2:53 PM 86.0 °F 92.2 °F 72.0 °F 63% 29.81 in 10.0 mi SE 11.5 mph - N/A   Partly Cloudy
3:53 PM 84.9 °F 91.4 °F 73.0 °F 67% 29.80 in 10.0 mi ESE 8.1 mph - N/A   Clear
4:53 PM 84.9 °F 91.4 °F 73.0 °F 67% 29.79 in 10.0 mi SE 9.2 mph - 0.00 in   Mostly Cloudy
5:53 PM 82.9 °F 89.4 °F 73.9 °F 74% 29.78 in 10.0 mi SE 9.2 mph - N/A   Clear
6:53 PM 82.0 °F 88.6 °F 75.0 °F 79% 29.79 in 4.0 mi SSE 13.8 mph - 0.03 in Rain , Thunderstorm Light Thunderstorms and Rain
7:02 PM 80.6 °F 86.2 °F 75.2 °F 84% 29.79 in 2.0 mi SSE 10.4 mph - 0.05 in Rain , Thunderstorm Thunderstorms and Rain
7:10 PM 80.6 °F 86.2 °F 75.2 °F 84% 29.79 in 8.0 mi SSE 10.4 mph - 0.06 in Rain , Thunderstorm Light Thunderstorms and Rain
7:53 PM 75.9 °F - 72.0 °F 87% 29.81 in 10.0 mi Calm Calm - 0.07 in Rain , Thunderstorm Light Thunderstorms and Rain
8:33 PM 75.2 °F - 71.6 °F 89% 29.81 in 10.0 mi SSE 4.6 mph - 0.00 in   Partly Cloudy
8:53 PM 75.0 °F - 71.1 °F 87% 29.82 in 10.0 mi Calm Calm - 0.01 in   Mostly Cloudy
10:53 PM 73.9 °F - 71.1 °F 91% 29.83 in 10.0 mi Calm Calm - N/A   Clear
11:53 PM 73.9 °F - 72.0 °F 93% 29.83 in 10.0 mi Calm Calm - N/A   Clear